Beverly, MA

7:34 PM EST on December 12, 2017 (GMT -0500)
Beverly Municipal

Weather History for KBVY - March, 2013

Change the Weather History Date:

Friday, March 29, 2013

  Actual Average Record
Temperature  
Mean Temperature 46 °F -  
Max Temperature 57 °F 45 °F 79 °F (1981)
Min Temperature 36 °F 30 °F 23 °F (2001)
Degree Days  
Heating Degree Days 20    
Moisture  
Dew Point 30 °F    
Average Humidity 57    
Maximum Humidity 73    
Minimum Humidity 35    
Precipitation  
Precipitation 0.01 in - - ()
Sea Level Pressure  
Sea Level Pressure 29.99 in    
Wind  
Wind Speed 6 mph (NW)    
Max Wind Speed 20 mph    
Max Gust Speed 29 mph    
Visibility 10 miles    
Events Rain    
Averages and records for this station are not official NWS values.
T = Trace of Precipitation, MM = Missing Value Source: NWS Daily Summary

Daily Weather History Graph

Daily Weather History Graph

Search for Another Location

Airport or City:

Trip Planner

Search our weather history database for the weather conditions in past years. The results will help you decide how hot, cold, wet, or windy it might be!

Date:

Astronomy

Mar. 29, 2013 Rise Set
Actual Time 6:30 AM EDT 7:06 PM EDT
Civil Twilight 6:02 AM EDT 7:34 PM EDT
Nautical Twilight 5:29 AM EDT 8:08 PM EDT
Astronomical Twilight 4:54 AM EDT 8:43 PM EDT
Moon 10:07 PM EDT (3/29) 7:33 AM EDT (3/29)
Length of Visible Light 13h 32m
Length of Day
12h 35m
Waning Gibbous, 93% of the Moon is Illuminated
Mar 29
Waning Gibbous
Apr 3
Last Quarter
Apr 10
New
Apr 18
First Quarter
Apr 25
Full

Hourly Weather History & Observations

Time (EDT) Temp. Windchill Dew Point Humidity Pressure Visibility Wind Dir Wind Speed Gust Speed Precip Events Conditions
12:53 AM 39.9 °F 36.7 °F 28.9 °F 65% 30.00 in 10.0 mi WNW 4.6 mph - N/A   Clear
1:53 AM 39.0 °F 34.0 °F 28.9 °F 67% 30.00 in 10.0 mi WNW 6.9 mph - N/A   Clear
2:53 AM 37.9 °F 33.5 °F 28.0 °F 68% 29.99 in 10.0 mi WNW 5.8 mph - N/A   Clear
3:53 AM 37.9 °F 34.4 °F 28.0 °F 68% 29.99 in 10.0 mi WNW 4.6 mph - N/A   Clear
4:53 AM 37.9 °F 34.4 °F 28.0 °F 68% 29.99 in 10.0 mi WNW 4.6 mph - N/A   Mostly Cloudy
5:53 AM 36.0 °F - 27.0 °F 70% 29.99 in 10.0 mi Calm Calm - N/A   Scattered Clouds
6:53 AM 36.0 °F 33.3 °F 28.0 °F 73% 30.00 in 10.0 mi West 3.5 mph - N/A   Clear
7:53 AM 39.9 °F 37.8 °F 30.0 °F 68% 30.01 in 10.0 mi WNW 3.5 mph - N/A   Clear
8:53 AM 46.0 °F 41.4 °F 32.0 °F 58% 30.01 in 10.0 mi NW 9.2 mph 16.1 mph N/A   Overcast
9:53 AM 48.0 °F - 33.1 °F 56% 30.02 in 10.0 mi NNW 12.7 mph - N/A   Overcast
10:53 AM 48.0 °F - 33.1 °F 56% 30.02 in 10.0 mi NNW 11.5 mph - N/A   Overcast
11:53 AM 48.9 °F - 33.1 °F 54% 30.01 in 10.0 mi WNW 8.1 mph - N/A   Mostly Cloudy
12:53 PM 54.0 °F - 32.0 °F 43% 29.99 in 10.0 mi Calm Calm - N/A   Scattered Clouds
1:53 PM 55.0 °F - 28.0 °F 35% 29.97 in 10.0 mi NNW 9.2 mph - N/A   Mostly Cloudy
2:53 PM 51.1 °F - 30.0 °F 44% 29.96 in 9.0 mi WNW 19.6 mph 28.8 mph 0.00 in Rain Light Rain
3:53 PM 52.0 °F - 32.0 °F 47% 29.96 in 10.0 mi South 3.5 mph - 0.01 in   Mostly Cloudy
4:53 PM 52.0 °F - 30.0 °F 43% 29.95 in 10.0 mi Calm Calm - 0.00 in   Overcast
5:53 PM 50.0 °F - 32.0 °F 50% 29.97 in 10.0 mi Variable 4.6 mph - N/A   Overcast
6:53 PM 50.0 °F - 30.9 °F 48% 29.98 in 10.0 mi Calm Calm - N/A   Overcast
7:53 PM 48.9 °F - 30.9 °F 50% 29.99 in 10.0 mi NW 9.2 mph - N/A   Overcast
8:53 PM 46.0 °F 43.1 °F 30.0 °F 54% 30.01 in 10.0 mi NW 5.8 mph - N/A   Overcast
9:53 PM 43.0 °F 38.2 °F 30.0 °F 60% 30.02 in 10.0 mi NNW 8.1 mph - N/A   Mostly Cloudy
10:53 PM 45.0 °F 41.8 °F 30.0 °F 56% 30.02 in 10.0 mi NW 5.8 mph - N/A   Overcast
11:53 PM 44.1 °F 41.5 °F 30.0 °F 58% 30.02 in 10.0 mi NW 4.6 mph - N/A   Overcast